Flag for Brazil Weather past 2 weeks in Manaus, Amazonas, Brazil

Now
81 °F

Partly sunny.


Feels Like: 83 °F
Forecast: 74 / 89 °F
Wind: 2 mph from Southeast

Location: Manaus Aeroporto

Current Time: Jul 22, 2014 at 8:06:34 AM

Latest Report: Jul 22, 2014 at 7:00 AM


Visibility: N/A

Pressure: 30.04 "Hg

Humidity: 62%

Dew point: 66 °F

Location of ManausLocation

Historic Weather in Manaus — Graph

°F

Manaus temperature yesterday

Maximum temperature yesterday: 88 °F (at 4:00 PM)
Minimum temperature yesterday: 77 °F (at 4:00 AM)
Average temperature yesterday: 81 °F

Past Weeks' High & Low Weather Summary

 TemperatureHumidityPressure
High91 °F (Jul 17, 2:00 PM)94% (Jul 9, 11:00 AM)30.04 "Hg (Jul 9, 11:00 AM)
Low72 °F (Jul 13, 6:00 AM)52% (Jul 20, 3:00 PM)29.83 "Hg (Jul 21, 4:00 PM)
Average80 °F80%29.95 "Hg
* Reported Jul 7 7:00 AM — Jul 22 7:00 AM, Manaus, Weather by CustomWeather, © 2014

Note: Actual official high and low records may vary slightly from our data, if they occured in-between our weather recording intervals... More about our weather records

Advertising

Manaus weather history for previous 24 hours

 ConditionsComfort  
Time TempWeatherWind HumidityBarometerVisibility
7:00 AM
Jul 22
77 °FPassing clouds.2 mph89%29.95 "HgN/A
6:00 AM75 °FPassing clouds.2 mph94%29.95 "HgN/A
5:00 AM75 °FPassing clouds.3 mph94%29.92 "HgN/A
4:00 AM77 °FPassing clouds.2 mph89%29.92 "HgN/A
3:00 AM77 °FPassing clouds.2 mph89%29.92 "HgN/A
2:00 AM77 °FClear.2 mph89%29.92 "Hg10 mi
1:00 AM77 °FClear.2 mph94%29.92 "Hg10 mi
12:00 AM79 °FThundershowers. Passing clouds.3 mph89%29.95 "HgN/A
11:00 PM
Jul 21
79 °FClear.2 mph89%29.95 "Hg10 mi
10:00 PM79 °FThundershowers. Passing clouds.2 mph89%29.95 "HgN/A
9:00 PM79 °FClear.2 mph84%29.92 "Hg10 mi
8:00 PM81 °FClear.2 mph79%29.89 "Hg10 mi
7:00 PM81 °FClear.2 mph79%29.89 "Hg10 mi
6:00 PM82 °FSunny.2 mph74%29.86 "Hg10 mi
5:00 PM86 °FPassing clouds.3 mph66%29.86 "HgN/A
4:00 PM88 °FScattered clouds.5 mph62%29.83 "HgN/A
3:00 PM86 °FScattered clouds.3 mph66%29.86 "HgN/A
2:00 PM86 °FScattered clouds.3 mph70%29.89 "HgN/A
1:00 PM86 °FScattered clouds.5 mph70%29.92 "HgN/A
12:00 PM86 °FScattered clouds.5 mph70%29.95 "HgN/A
11:00 AM84 °FScattered clouds.5 mph70%29.98 "HgN/A
10:00 AM82 °FScattered clouds.5 mph74%29.98 "HgN/A
9:00 AM81 °FScattered clouds.3 mph79%29.98 "HgN/A
8:00 AM79 °FScattered clouds.3 mph84%29.98 "HgN/A
Weather by CustomWeather, © 2014

See weather overviewHow to use our weather pages